EW8130 Weather Reports


Display with metric or nautical units.
time (UTC)temp
F
wind
direction
speed
MPH
gust
MPH
rain 1hr
in
rain 24hr
in
rain mn
in
humidity
%
barometer
mb
20260902164546 93 359 0.0 1.0 0.00 0.00 0.00 55 994.7
20260902163044 92 289 0.0 2.0 0.00 0.00 0.00 58 995.0
20260902161545 91 359 0.0 0.0 0.00 0.00 0.00 61 995.0
20260902160037 89 73 0.0 1.0 0.00 0.00 0.00 63 995.0
20260902154536 88 163 0.0 1.0 0.00 0.00 0.00 65 995.0
20260902153036 88 359 0.0 2.0 0.00 0.00 0.00 66 995.1
20260902151530 87 52 0.0 1.0 0.00 0.00 0.00 67 995.0
20260902150026 87 10 0.0 1.0 0.00 0.00 0.00 68 995.0
20260902144524 85 359 0.0 1.0 0.00 0.00 0.00 70 994.9
20260902143021 85 52 0.0 1.0 0.00 0.00 0.00 71 994.9
20260902141532 84 27 0.0 1.0 0.00 0.00 0.00 72 994.9
20260902140019 83 42 0.0 1.0 0.00 0.00 0.00 74 994.8
20260902134518 82 359 0.0 1.0 0.00 0.00 0.00 75 994.8
20260902133018 81 359 0.0 1.0 0.00 0.00 0.00 76 994.6
20260902131522 80 106 0.0 2.0 0.00 0.00 0.00 77 994.5
20260902130016 79 359 0.0 1.0 0.00 0.00 0.00 79 994.7
20260902124515 78 37 0.0 1.0 0.00 0.00 0.00 81 994.5
20260902123013 77 42 0.0 1.0 0.00 0.00 0.00 82 994.4
20260902121512 76 359 0.0 2.0 0.00 0.00 0.00 82 994.3
20260902120015 76 359 0.0 0.0 0.00 0.00 0.00 82 994.2
20260902114521 76 359 0.0 0.0 0.00 0.00 0.00 82 994.1
20260902113010 77 33 0.0 0.0 0.00 0.00 0.00 81 994.3
20260902111508 77 359 0.0 0.0 0.00 0.00 0.00 80 994.2
20260902110012 77 359 0.0 0.0 0.00 0.00 0.00 79 994.1
20260902104506 78 359 0.0 0.0 0.00 0.00 0.00 78 994.1
20260902103001 79 31 0.0 0.0 0.00 0.00 0.00 75 994.1
20260902101617 80 40 0.0 0.0 0.00 0.00 0.00 73 994.1
20260902100057 80 42 0.0 1.0 0.00 0.00 0.00 74 994.1
20260902094556 80 81 0.0 1.0 0.00 0.00 0.00 73 994.1
20260902093054 81 42 0.0 1.0 0.00 0.00 0.00 73 994.0
20260902091554 81 148 0.0 1.0 0.00 0.00 0.00 73 994.0
20260902090053 81 191 0.0 1.0 0.00 0.00 0.00 72 993.9
20260902084554 81 64 0.0 1.0 0.00 0.00 0.00 73 993.7
20260902083051 81 176 0.0 1.0 0.00 0.00 0.00 73 993.7
20260902081551 81 145 0.0 1.0 0.00 0.00 0.00 73 993.8
20260902080054 81 81 0.0 1.0 0.00 0.00 0.00 72 993.8
20260902074546 82 66 0.0 1.0 0.00 0.00 0.00 72 993.8
20260902073044 82 44 0.0 1.0 0.00 0.00 0.00 71 993.9
20260902071543 82 27 0.0 2.0 0.00 0.00 0.00 71 993.9
20260902070040 83 50 0.0 1.0 0.00 0.00 0.00 70 994.0
20260902064542 83 37 0.0 1.0 0.00 0.00 0.00 70 994.1
20260902063038 83 43 0.0 1.0 0.00 0.00 0.00 70 994.0
20260902061545 83 75 0.0 2.0 0.00 0.00 0.00 70 993.9
20260902060037 84 50 0.0 2.0 0.00 0.00 0.00 70 993.9
20260902054536 84 53 0.0 2.0 0.00 0.00 0.00 70 993.9
20260902053037 84 34 0.0 2.0 0.00 0.00 0.00 69 993.9
20260902051532 85 37 0.0 2.0 0.00 0.00 0.00 68 993.9
20260902050028 85 79 0.0 2.0 0.00 0.00 0.00 68 993.8
20260902044527 85 57 0.0 2.0 0.00 0.00 0.00 67 993.8
20260902043029 86 56 0.0 2.0 0.00 0.00 0.00 66 993.8
20260902041528 86 34 0.0 2.0 0.00 0.00 0.00 65 993.7
20260902040026 87 43 0.0 3.0 0.00 0.00 0.00 64 993.7
20260902034526 87 62 0.0 2.0 0.00 0.00 0.00 62 993.6
20260902033035 89 39 0.0 11.0 0.00 0.00 0.00 60 993.5
20260902031530 88 21 0.0 0.0 0.00 0.00 0.00 57 993.1
20260902030024 89 43 0.0 0.0 0.00 0.00 0.00 58 992.8
20260902024523 89 47 0.0 0.0 0.00 0.00 0.00 57 992.7
20260902023025 89 33 0.0 1.0 0.00 0.00 0.00 57 992.5
20260902021527 89 18 0.0 1.0 0.00 0.00 0.00 56 992.3
20260902020022 89 359 0.0 1.0 0.00 0.00 0.00 56 992.1
20260902014534 90 359 0.0 0.0 0.00 0.00 0.00 56 991.9
20260902013021 90 4 0.0 1.0 0.00 0.00 0.00 55 991.8
20260902011533 91 31 0.0 1.0 0.00 0.00 0.00 53 991.7
20260902010031 92 359 0.0 1.0 0.00 0.00 0.00 52 991.6
20260902004526 93 359 0.0 0.0 0.00 0.00 0.00 50 991.5
20260902003018 93 4 0.0 0.0 0.00 0.00 0.00 49 991.5
20260902001518 93 35 0.0 0.0 0.00 0.00 0.00 50 991.6
20260902000021 94 64 0.0 1.0 0.00 0.00 0.00 49 991.7
20260901234538 94 10 0.0 1.0 0.00 0.00 0.00 48 991.8
20260901233014 95 21 0.0 1.0 0.00 0.00 0.00 48 991.9
20260901231514 95 27 0.0 1.0 0.00 0.00 0.00 48 992.0
20260901230013 95 359 0.0 1.0 0.00 0.00 0.00 48 992.0
20260901224513 95 31 0.0 1.0 0.00 0.00 0.00 47 992.1
20260901223018 95 359 0.0 1.0 0.00 0.00 0.00 47 992.1
20260901221521 96 286 0.0 10.0 0.00 0.00 0.00 46 992.1
20260901220013 96 312 0.0 1.0 0.00 0.00 0.00 46 992.2
20260901214510 95 359 0.0 1.0 0.00 0.00 0.00 47 992.3
20260901213010 95 60 0.0 2.0 0.00 0.00 0.00 47 992.5
20260901211510 95 40 0.0 4.0 0.00 0.00 0.00 47 992.7
20260901210006 96 359 0.0 0.0 0.00 0.00 0.00 47 992.8
20260901204504 97 359 0.0 2.0 0.00 0.00 0.00 46 993.0
20260901203009 99 359 0.0 0.0 0.00 0.00 0.00 44 993.0
20260901201502 99 275 2.0 10.0 0.00 0.00 0.00 44 993.2
20260901200106 99 359 0.0 1.0 0.00 0.00 0.00 44 993.3
20260901200003 99 312 0.0 1.0 0.00 0.00 0.00 45 993.3
20260901194605 99 66 0.0 9.0 0.00 0.00 0.00 44 993.5
20260901193058 99 33 0.0 1.0 0.00 0.00 0.00 45 993.5
20260901191557 97 143 0.0 2.0 0.00 0.00 0.00 47 993.8
20260901190107 97 276 0.0 1.0 0.00 0.00 0.00 46 994.1
20260901184556 99 359 0.0 2.0 0.00 0.00 0.00 44 994.2
20260901183052 97 293 0.0 1.0 0.00 0.00 0.00 46 994.5
20260901181555 97 85 0.0 1.0 0.00 0.00 0.00 47 995.0
20260901180046 96 20 0.0 1.0 0.00 0.00 0.00 47 995.2
20260901174544 95 210 0.0 1.0 0.00 0.00 0.00 50 995.4
20260901173103 94 111 0.0 2.0 0.00 0.00 0.00 51 995.7
20260901171542 95 84 0.0 6.0 0.00 0.00 0.00 50 995.7
20260901170042 95 68 0.0 6.0 0.00 0.00 0.00 50 995.9